Weather in Jena

Germany     50°55′49″N   11°35′33″E
temp.,
°C
wind,
m/s
gust,
m/s
humid.,
%
clouds,
%
prec.,
mm/h
press.,
hPa
HPBL,
m
11 may, tue
tue1123:00+14w1194100 0.6 100912
02:00+13wnw369867 1.3 1008196
05:00+13wnw2599100 0.1 1007302
08:00+14nnw3599100 0.5 1007406
11:00+14nw2398100 0.4 1006443
14:00+14nw2297100 0.5 1006565
17:00+14nnw3497100 0.1 1005470
20:00+14w3698100 0.3 1005376
12 may, wed
wed1223:00+12wnw51095100 0.1 1006536
02:00+12w51097100 1.9 1007583
05:00+11w4897100 0.7 1008430
08:00+11w3896100 0.9 1009545
11:00+11w4897100 3.1 1010569
14:00+11wnw4898100 5.6 1010511
17:00+10nnw2598100 2.5 1010386
20:00+10nw1498100 4.3 1010213
13 may, thu
thu1323:00+10wnw4699100 5.9 1009343
02:00+10nw4899100 13.1 1008468
05:00+9nw51099100 5.4 1006577
08:00+8nw61298100 12.7 1005558
11:00+8wnw71398100 10.7 1005670
14:00+8wnw71297100 20.3 1005702
17:00+8wnw71297100 6.1 1004657
20:00+8w71297100 12.6 1005543
14 may, fri
fri1423:00+8w61296100 3.4 1005582
02:00+7w51196100 7.3 1005540
05:00+8w51196100 2.0 1005549
08:00+8w41096100 3.3 1006548
11:00+8w4995100 1.0 1007586
14:00+9w4992100 1.2 1008737
17:00+12wnw468284 0.1 1008902
20:00+10nw249059 0.2 100894
15 may, sat
sat1523:00+7wsw22935 0.0 100913
02:00+6sw22945 0.0 100921
05:00+6sw229317 0.0 101014
08:00+10wsw37862 0.0 1010367
11:00+14w577112 0.1 10091210
14:00+16w465970 0.6 10081746
17:00+16wsw566740 0.4 10071330
20:00+12sw358583 1.4 1007119